MD4008 Weather Reports


time (UTC)temp
C
wind
direction
speed
KPH
gust
KPH
rain 1hr
cm
rain 24hr
cm
rain mn
cm
humidity
%
barometer
mb
20260505070114 3 132 0.0 0.0 0.00 0.00 0.00 92 1006.9
20260505064516 2 88 0.0 0.0 0.00 0.00 0.00 92 1006.8
20260505063055 2 88 0.0 0.0 0.00 0.00 0.00 91 1006.8
20260505061621 2 88 0.0 0.0 0.00 0.00 0.00 91 1006.6
20260505060127 2 100 0.0 0.0 0.00 0.00 0.00 91 1006.7
20260505054530 2 103 1.6 0.0 0.00 0.00 0.00 91 1006.5
20260505053057 2 169 8.0 0.0 0.00 0.00 0.00 91 1006.1
20260505051506 2 161 4.8 0.0 0.00 0.00 0.00 90 1005.8
20260505041526 6 138 0.0 0.0 0.00 0.00 0.00 88 1005.4
20260505040100 6 138 0.0 0.0 0.00 0.00 0.00 87 1005.3
20260505034604 6 139 0.0 0.0 0.00 0.00 0.00 86 1005.1
20260505033045 6 138 0.0 0.0 0.00 0.00 0.00 83 1004.9
20260505031501 6 136 0.0 0.0 0.00 0.00 0.00 84 1004.6
20260505030011 7 136 0.0 0.0 0.00 0.00 0.00 82 1004.2
20260505024606 7 133 1.6 0.0 0.00 0.00 0.00 78 1004.0
20260505023011 7 169 1.6 0.0 0.00 0.00 0.00 76 1003.9
20260505021608 7 166 3.2 0.0 0.00 0.00 0.00 76 1003.7
20260505020002 8 170 6.4 0.0 0.00 0.00 0.00 73 1003.6
20260505014530 9 180 1.6 0.0 0.00 0.00 0.00 63 1003.3
20260505013058 9 94 0.0 0.0 0.00 0.00 0.00 62 1003.2
20260505011526 9 66 0.0 0.0 0.00 0.00 0.00 63 1003.0
20260505010047 9 66 0.0 0.0 0.00 0.00 0.00 63 1002.9
20260505004604 9 51 0.0 0.0 0.00 0.00 0.00 63 1002.9
20260505003021 9 49 0.0 0.0 0.00 0.00 0.00 63 1003.0
20260505001550 9 22 4.8 0.0 0.00 0.00 0.00 62 1003.1
20260505000120 10 53 8.0 0.0 0.00 0.00 0.00 60 1003.2
20260504234523 11 43 4.8 0.0 0.00 0.00 0.00 54 1003.0
20260504233046 11 292 4.8 0.0 0.00 0.00 0.00 51 1002.8
20260504231557 12 292 3.2 0.0 0.00 0.00 0.00 48 1002.7
20260504230004 12 346 3.2 0.0 0.00 0.00 0.00 48 1002.5
20260504224534 12 22 1.6 0.0 0.00 0.00 0.00 47 1002.4
20260504223053 12 276 1.6 0.0 0.00 0.00 0.00 49 1002.4
20260504221510 12 5 0.0 0.0 0.00 0.00 0.00 48 1002.3
20260504220137 12 30 0.0 0.0 0.00 0.00 0.00 46 1002.6
20260504214513 12 332 1.6 0.0 0.00 0.00 0.00 50 1002.9
20260504213046 11 59 4.8 0.0 0.00 0.00 0.00 50 1003.0
20260504211605 12 17 3.2 0.0 0.00 0.00 0.00 45 1002.9
20260504210011 12 101 1.6 0.0 0.00 0.00 0.00 44 1002.8
20260504204602 13 138 6.4 0.0 0.00 0.00 0.00 41 1002.7
20260504203011 13 140 9.7 0.0 0.00 0.00 0.00 40 1002.1
20260504201552 13 135 14.5 0.0 0.00 0.00 0.00 40 1001.9
20260504200125 13 140 11.3 0.0 0.00 0.00 0.00 43 1002.1
20260504194526 12 150 6.4 0.0 0.00 0.00 0.00 43 1002.7
20260504193053 12 117 1.6 0.0 0.00 0.00 0.00 42 1003.1
20260504191558 12 69 4.8 0.0 0.00 0.00 0.00 41 1002.6
20260504190010 11 37 12.9 0.0 0.00 0.00 0.00 46 1002.7
20260504184538 11 20 14.5 0.0 0.00 0.00 0.00 43 1003.0
20260504183056 15 39 3.2 0.0 0.00 0.00 0.00 25 1001.9
20260504181611 15 54 11.3 0.0 0.00 0.00 0.00 24 1001.5
20260504180122 15 53 6.4 0.0 0.00 0.00 0.00 23 1001.3
20260504174529 16 61 11.3 0.0 0.00 0.00 0.00 24 1001.5
20260504173053 16 53 8.0 0.0 0.00 0.00 0.00 22 1001.6
20260504171515 17 342 14.5 0.0 0.00 0.00 0.00 20 1001.7
20260504150125 15 24 6.4 0.0 0.00 0.00 0.00 25 1001.9
20260504130115 8 50 3.2 0.0 0.00 0.00 0.00 34 1002.3
20260504120120 6 57 3.2 0.0 0.00 0.00 0.00 39 1002.2
20260504100120 5 33 3.2 0.0 0.00 0.00 0.00 42 1002.4
20260504081550 6 41 0.0 0.0 0.00 0.00 0.00 40 1003.5
20260504080121 6 40 1.6 0.0 0.00 0.00 0.00 39 1003.7